Theta_e
326 326 326 325 323 328 336 341 345 356 359 357 354 354 353 356 357 358 359 360 360 361 360 359 359 359 350 349 350 348 345 342 343 341 341 340 347 349 348 350 349 349 349
323 323 322 325 323 331 337 345 349 354 355 353 354 353 354 356 356 356 358 360 359 359 360 358 348 347 340 347 345 344 336 333 336 334 333 327 330 335 342 345 347 348 347
321 318 320 323 324 328 335 341 352 353 354 356 355 354 356 355 353 355 357 359 360 357 350 346 342 342 341 331 340 338 336 327 329 336 330 322 320 325 331 341 342 347 346
318 316 316 319 324 326 332 342 348 352 354 353 349 351 346 344 347 350 348 345 344 341 341 341 339 342 334 339 334 333 333 332 326 327 330 334 332 324 322 329 334 342 345
314 311 313 317 321 325 332 338 344 347 348 349 350 348 347 342 336 333 339 344 341 338 334 337 337 338 335 338 337 335 335 330 326 324 324 331 329 332 328 324 327 331 333
313 315 316 319 322 324 328 333 338 339 342 340 340 338 334 334 330 330 328 327 328 331 336 334 338 339 339 336 335 337 336 334 331 327 328 325 323 323 323 323 327 328 331
314 315 317 318 322 325 327 329 332 331 332 333 333 333 334 333 333 334 329 330 326 327 339 338 340 336 339 338 339 339 336 334 331 334 327 325 324 325 325 324 322 322 326
313 313 315 316 317 319 322 325 326 325 326 328 328 330 331 327 328 331 330 329 328 329 336 335 338 339 338 336 340 335 332 337 331 333 333 325 324 324 323 321 321 319 320
313 314 315 315 315 316 319 320 321 320 320 322 323 323 324 324 324 326 327 326 331 329 332 333 333 335 336 338 342 333 336 335 335 335 335 329 325 324 323 323 322 320 316
311 311 312 313 313 314 314 316 317 317 318 319 320 319 320 321 321 321 322 323 324 324 325 327 331 333 334 336 340 336 337 336 331 328 333 334 326 327 324 324 323 322 319
310 310 310 312 312 313 313 314 313 314 315 316 316 317 317 318 318 318 319 320 321 321 320 321 321 322 326 332 336 335 333 331 332 333 330 330 334 325 323 323 322 321 320
311 311 311 311 311 311 312 311 312 311 313 313 314 314 315 316 316 316 317 318 318 318 318 317 318 318 318 321 323 327 330 330 330 330 328 326 325 332 331 325 329 323 325
309 310 310 310 310 310 310 310 310 310 310 311 311 312 313 314 314 315 316 315 315 315 316 315 315 315 316 316 318 318 319 324 328 330 329 328 328 328 325 328 325 323 324
307 308 309 309 309 309 308 308 309 309 310 309 310 310 312 312 313 313 313 313 314 313 313 313 313 313 314 315 315 315 316 319 319 324 327 327 327 327 327 327 327 327 324
308 307 307 308 308 307 308 307 307 308 309 308 308 309 310 311 311 311 312 311 311 311 311 311 311 311 311 310 312 313 313 314 314 318 319 323 323 320 322 325 325 326 322
305 305 306 306 305 305 306 306 306 307 308 307 306 308 309 309 309 309 308 308 307 307 306 306 306 306 307 303 302 305 307 308 308 309 311 314 317 318 313 314 314 320 324
303 304 304 304 305 305 306 305 305 306 305 305 306 306 306 305 304 303 303 302 302 303 302 302 303 303 304 300 299 301 306 307 307 308 309 311 313 315 319 315 311 312 310
303 304 303 303 305 304 304 304 304 304 304 304 304 303 301 300 300 300 301 301 301 300 299 299 300 300 301 298 297 298 304 306 306 309 310 312 314 317 318 319 319 322 325
302 302 302 302 303 302 303 301 301 302 302 301 300 300 299 299 300 300 301 301 300 298 299 299 299 299 300 297 296 299 303 304 304 308 309 310 315 309 301 314 320 321 322
301 301 301 301 301 302 300 298 298 299 298 298 297 300 301 301 300 300 300 301 301 299 299 298 300 300 300 298 296 298 302 305 305 309 311 307 310 299 298 305 314 311 311
299 299 299 299 299 298 297 296 297 294 293 297 300 301 301 300 300 300 301 301 300 300 300 299 300 302 302 303 297 296 304 304 304 307 312 312 301 301 299 297 311 309 311
296 296 295 295 295 296 295 294 290 293 297 298 298 298 298 299 301 301 302 304 301 301 303 300 299 302 304 301 299 297 296 301 306 306 307 309 300 302 300 302 297 298 305
292 293 292 292 294 294 291 288 292 295 295 294 295 297 300 302 302 302 302 300 300 300 302 303 300 299 303 306 299 297 298 296 301 308 305 298 299 298 303 296 297 296 315
290 291 291 290 288 289 290 292 294 293 292 292 294 298 300 302 303 303 303 304 299 300 301 302 301 303 305 303 303 304 304 299 302 303 311 306 303 301 302 307 309 318 321
290 290 288 287 287 289 289 290 291 292 290 291 293 297 301 302 302 300 301 300 303 301 299 300 303 301 300 302 298 297 299 304 307 310 314 313 312 312 313 316 318 319 321
289 287 287 287 286 287 288 289 290 290 289 290 291 295 298 300 300 299 299 298 296 295 294 292 293 299 296 294 293 292 291 293 296 311 310 311 311 312 316 316 317 319 315
Wind_Speed
26 16 14 13 11 9 8 10 10 11 9 10 10 10 10 9 10 9 10 10 10 11 10 9 8 8 7 6 6 7 9 8 9 9 12 13 14 15 14 13 14 16 16
25 15 13 16 11 9 8 8 10 8 10 8 7 8 9 8 7 8 9 10 10 10 10 8 6 7 6 6 7 7 8 9 8 9 11 13 12 12 13 13 11 15 13
24 13 18 9 9 9 9 10 9 10 10 9 5 4 4 4 7 7 8 9 9 8 9 9 8 6 7 7 7 8 8 9 8 10 11 11 13 13 12 11 10 11 10
19 9 12 13 11 9 9 10 9 9 8 9 9 9 8 7 6 7 6 7 9 9 10 9 9 8 7 5 6 6 8 7 9 9 10 12 14 14 15 13 13 11 10
10 13 12 12 7 7 7 7 9 10 9 10 7 8 7 4 5 5 7 7 8 9 9 10 10 9 8 7 9 7 8 8 9 9 10 11 10 13 13 15 13 14 14
7 5 4 5 4 5 6 7 9 8 8 7 5 1 1 2 2 4 4 6 7 8 11 12 11 10 9 9 9 10 11 10 9 10 9 10 11 11 13 14 13 14 13
10 10 9 8 6 7 8 7 10 9 8 6 5 5 4 3 4 4 4 7 7 7 8 10 11 10 12 12 11 10 11 11 11 10 10 10 11 11 11 13 13 14 14
12 14 12 12 11 11 10 9 9 10 8 7 7 6 6 4 4 4 6 7 8 9 9 10 11 13 14 14 12 11 12 11 11 14 12 11 11 11 11 12 13 14 13
14 15 15 13 14 13 13 11 11 11 10 10 8 8 7 7 6 6 7 7 9 9 12 13 14 15 16 16 14 13 13 12 12 13 12 12 11 11 12 11 11 13 14
13 13 13 13 11 11 10 11 10 10 9 8 7 7 6 7 7 7 9 10 10 11 12 13 14 15 16 16 15 15 15 14 13 12 14 13 13 13 12 12 13 13 14
11 11 11 11 11 10 11 9 9 8 8 7 7 7 8 9 9 10 11 12 12 13 14 15 15 16 16 17 16 18 19 19 16 16 17 17 15 14 14 13 13 13 14
10 9 9 9 9 9 8 7 7 7 7 8 9 9 10 11 11 12 13 14 15 15 16 17 17 18 18 18 19 20 20 21 21 20 20 21 15 17 16 14 15 15 14
7 8 7 8 8 8 9 9 9 9 10 10 11 12 12 13 13 14 14 15 15 16 17 17 18 19 19 20 20 21 22 21 21 22 21 21 20 19 16 16 15 15 13
5 7 6 7 8 8 10 10 10 10 11 12 13 13 13 13 13 14 14 14 15 15 15 16 17 18 18 19 20 21 22 21 21 20 21 22 22 22 19 17 17 15 15
1 5 6 7 8 8 9 9 10 12 12 13 14 14 14 14 14 14 14 14 14 14 15 16 17 17 16 14 17 16 17 19 21 21 22 21 23 27 23 16 18 18 16
5 7 8 10 11 11 11 12 13 13 13 13 15 15 14 14 14 14 14 14 15 15 15 16 17 18 13 16 12 12 15 16 17 18 20 21 26 23 23 24 23 21 18
4 7 9 9 10 11 11 14 14 14 14 14 14 13 13 13 14 14 15 14 15 15 15 17 17 17 16 15 12 14 17 17 16 19 18 19 16 22 23 22 24 28 26
11 11 10 11 11 12 12 12 13 13 13 13 13 13 14 14 14 14 15 15 14 13 14 14 15 16 14 18 16 20 20 19 17 18 19 20 20 21 22 23 22 22 21
10 10 10 12 13 13 13 13 14 13 13 13 13 13 13 14 14 15 15 15 14 14 14 16 16 18 18 19 17 16 16 16 15 18 15 19 20 16 11 17 23 23 20
10 12 13 13 12 12 13 13 13 12 12 12 13 14 14 14 15 16 16 15 15 14 12 14 16 19 18 19 16 17 12 16 13 16 17 17 10 11 14 16 21 19 12
13 14 13 13 12 12 12 12 12 12 12 13 14 14 15 15 15 15 14 14 12 14 14 14 14 17 16 17 18 19 15 13 12 12 10 4 7 12 16 19 6 10 8
15 13 12 12 12 11 11 12 11 12 12 13 14 15 15 11 11 14 15 14 11 14 15 12 11 12 13 14 14 15 14 15 13 12 7 6 6 10 20 8 5 6 5
12 12 12 13 11 12 10 10 11 11 12 13 14 15 14 13 12 14 13 10 10 11 13 12 8 9 11 8 7 13 13 14 10 8 10 3 2 3 9 6 10 10 8
12 12 12 12 12 10 9 10 11 11 12 13 14 14 14 13 13 12 13 10 8 10 12 9 9 10 8 6 6 7 7 3 6 10 8 2 4 4 8 5 7 9 2
12 11 10 8 10 11 11 10 10 11 11 12 12 13 11 12 13 11 10 11 12 10 10 10 10 9 9 8 7 10 8 6 5 5 1 1 3 6 6 4 4 6 6
9 8 8 8 11 11 11 10 11 11 11 11 10 10 11 11 10 10 12 13 14 18 15 13 10 9 10 17 16 15 14 8 5 3 0 4 5 5 4 5 5 4 2
Wind_Direction
238 268 283 289 277 246 227 221 212 214 198 200 202 208 213 213 213 212 208 203 211 206 204 228 207 227 247 259 277 263 251 272 281 298 277 266 254 250 253 257 263 260 254
235 265 279 271 258 244 219 221 220 188 211 204 211 216 211 200 204 200 200 212 211 216 217 232 212 224 249 227 247 250 274 273 277 271 284 284 272 265 257 248 253 267 271
219 234 242 219 247 242 221 214 200 187 198 207 178 200 172 191 192 194 195 201 206 199 212 209 238 214 241 238 216 239 266 283 286 278 285 285 281 299 298 278 262 253 267
215 254 264 267 248 253 230 206 189 184 180 173 189 201 208 201 201 185 179 167 194 199 205 215 219 223 247 249 232 241 266 273 281 279 265 273 286 287 289 281 277 264 251
257 282 274 266 250 215 187 182 175 178 160 174 198 198 232 189 175 176 163 214 193 217 222 223 227 226 230 224 250 253 248 274 271 280 285 282 269 266 267 280 282 276 277
157 173 226 227 157 189 171 156 153 142 143 144 135 122 126 306 244 212 217 219 219 212 229 233 231 232 237 239 237 241 247 255 273 277 281 278 280 284 282 283 279 276 278
115 110 101 86 90 117 136 136 100 91 80 90 87 74 56 4 296 298 274 290 266 247 242 239 254 244 234 244 236 234 248 243 247 248 262 272 277 281 278 279 285 284 280
95 90 88 92 90 84 81 101 103 84 79 71 62 46 25 342 314 295 310 287 284 281 292 285 273 259 257 249 247 241 237 243 237 243 248 263 269 275 276 280 283 283 283
97 97 94 91 82 75 69 67 71 68 53 49 40 40 23 16 360 334 318 290 292 279 267 269 265 266 262 254 249 243 247 240 238 242 241 247 261 265 270 272 275 280 284
95 87 86 82 76 84 75 61 55 52 48 33 24 16 346 337 327 312 295 288 285 282 283 282 276 270 263 259 252 249 245 242 245 247 246 241 250 254 255 260 268 275 280
96 88 80 72 64 58 55 49 37 32 25 4 345 330 320 311 302 294 286 285 288 282 278 276 273 270 268 262 255 253 258 258 247 242 250 251 247 252 255 256 258 262 269
91 84 76 69 62 52 43 39 14 358 355 338 324 318 307 303 294 293 293 289 286 284 281 279 275 272 268 266 263 260 255 252 246 245 248 251 249 242 244 255 261 265 271
82 59 49 42 33 23 13 360 348 347 335 324 314 307 306 300 293 290 287 288 287 282 277 277 277 276 275 271 266 262 261 261 258 257 255 252 248 249 251 252 256 256 251
98 62 33 25 16 4 352 339 329 330 322 316 306 301 296 296 296 294 289 287 284 286 288 286 284 282 278 274 271 270 268 267 265 265 261 258 256 253 249 248 248 254 261
78 33 5 357 344 340 329 320 320 315 315 307 302 300 298 296 296 294 292 291 288 287 290 289 286 283 279 273 273 277 279 277 275 272 271 266 258 257 258 256 248 250 253
6 353 344 340 335 331 324 324 314 315 312 306 304 307 304 301 298 297 299 302 300 299 298 295 292 293 285 295 305 290 283 282 283 280 277 280 278 258 247 245 245 254 259
338 330 327 325 327 323 319 310 314 315 308 302 301 304 308 308 310 312 305 298 295 296 294 291 289 285 285 279 272 274 277 273 272 273 268 270 262 265 259 244 237 240 239
333 329 329 325 323 321 311 317 316 311 309 308 313 323 325 313 305 299 296 297 293 293 286 283 280 282 282 285 276 269 271 270 266 267 269 269 270 261 257 260 257 249 247
326 326 327 323 319 316 325 321 316 316 313 322 325 315 308 304 304 299 296 293 291 286 283 283 281 275 279 273 268 267 274 266 266 267 268 266 268 263 281 281 264 258 257
333 328 326 316 314 328 326 316 313 315 322 322 309 305 303 301 303 304 299 290 286 278 273 273 274 273 275 272 265 264 270 266 266 267 259 261 272 305 279 265 249 246 260
336 332 325 319 334 327 315 311 314 322 309 300 305 311 314 308 296 288 288 287 283 276 277 279 276 281 274 274 260 252 260 266 265 264 270 294 251 12 320 340 152 134 129
334 334 326 326 318 314 325 321 315 300 308 313 312 309 301 289 296 300 296 295 288 288 283 281 280 280 279 265 260 252 251 256 263 264 279 284 6 8 311 12 100 169 164
329 328 324 317 320 340 322 307 301 319 318 314 306 300 305 309 318 309 298 306 302 290 297 290 276 281 285 281 312 279 295 247 245 258 265 191 322 287 297 242 217 231 221
330 328 330 330 327 314 313 312 327 325 321 308 305 306 312 315 317 315 320 318 291 296 297 299 300 294 297 296 286 281 309 229 203 253 252 97 325 291 283 197 203 240 111
339 341 333 317 323 336 332 332 330 329 315 308 308 305 308 321 321 315 310 308 296 288 287 289 289 297 291 290 301 297 306 281 195 209 148 142 253 260 246 178 193 135 186
343 337 334 335 343 342 335 337 333 326 318 314 313 312 308 321 319 314 314 301 279 281 283 274 257 282 274 291 299 306 304 270 130 119 130 220 204 227 201 145 133 108 157